Regional Weather Roundup
Issued by NWS Wakefield, VA

Home | Current Version | Previous Version | Text Only | Print | Product List | Glossary On
Versions: 1 2 3 4 5 6 7 8 9 10 11 12 13 14 15 16 17 18 19 20 21 22 23 24 25 26 27
000
ASUS41 KAKQ 272015
RWRAKQ

REGIONAL WEATHER ROUNDUP
NATIONAL WEATHER SERVICE WAKEFIELD VA
400 PM EDT FRI MAY 27 2016

Note: "fair" indicates few or no clouds below 12,000 feet with no
significant weather and/or obstructions to visibility. * = Denotes
station may not report precipitation (e.g., rain,snow,etc.),
thunder or fog.

VAZ042-051-052>054-056-272100-
NORTHERN VIRGINIA

CITY           SKY/WX    TMP DP  RH WIND       PRES   REMARKS
WASH NATIONAL  FAIR      86  69  56 S14       30.04F
DULLES         PTSUNNY   88  66  48 S10G16    30.04F
FORT BELVOIR   FAIR      88  69  51 VRB3      30.04F
QUANTICO       FAIR      84  72  67 S8        30.05F
FREDERICKSBRG* FAIR      91  68  47 S9        30.04S HX  95
STAFFORD*      FAIR      88  65  46 SW7       30.08F
WARRENTON      FAIR      89  62  39 S8        30.05S
CULPEPER*      FAIR      89  69  52 S7        30.05F
MANASSAS*      MOSUNNY   88  66  48 S9        30.04F
LEESBURG*      FAIR      91  68  46 S6G20     30.05F HX  95
WINCHESTER     FAIR      88  64  45 SE6       30.05S
FRONT ROYAL*   FAIR      88  68  51 S3        30.04F
LURAY*         FAIR      88  63  42 SE5       30.05F
$$

VAZ048-049-060>072-079>083-272100-
CENTRAL AND SOUTH CENTRAL VIRGINIA

CITY           SKY/WX    TMP DP  RH WIND       PRES   REMARKS
RICHMOND       PTSUNNY   86  66  51 S13       30.08S
CHESTERFIELD*  MOCLDY    88  63  42 S9        30.09F
PETERSBURG*    FAIR      89  64  43 S8G18     30.09S
HANOVER        FAIR      87  63  44 S10       30.08F
TAPPAHANNOCK*  FAIR      88  64  44 S9        30.08S
QUINTON*       FAIR      87  66  48 S6        30.08S
CHARLOTTSVILLE NOT AVBL
GORDONSVILLE*  FAIR      87  70  55 S8        30.05F
ORANGE*        FAIR      88  66  48 SW8       30.07F
LOUISA*        FAIR      91  70  49 CALM      30.06F HX  97
BUMPASS*       FAIR      87  69  55 SW3       30.07S
FARMVILLE*     FAIR      88  66  47 S10       30.06F
CREWE*         FAIR      87  67  52 S10       30.09S
FORT PICKETT*  NOT AVBL
CHASE CITY*    MOCLDY    87  63  44 SE7       30.10S
CLARKSVILLE*   FAIR      86  64  48 S5        30.09F
SOUTH HILL*    FAIR      83  66  55 S7        30.15F
LAWRENCEVILLE* CLOUDY    82  67  59 S5        30.10S
EMPORIA*       FAIR      86  66  51 SE8       30.11S
$$

VAZ088>098-272100-
SOUTHEAST VIRGINIA

CITY           SKY/WX    TMP DP  RH WIND       PRES   REMARKS
NORFOLK        FAIR      86  62  44 S10       30.09F
VIRGINIA BEACH FAIR      85  62  46 SE15      30.10S
NORFOLK NAVAL  FAIR      87  63  44 S12       30.11S
WEST POINT*    FAIR      87  64  45 S9        30.09F
SALUDA*        FAIR      86  69  56 S9G16     30.08S
NEWPORT NEWS   FAIR      86  67  52 S12       30.09F
LANGLEY AFB    FAIR      85  65  50 S13       30.09S
FORT EUSTIS    FAIR      86  72  63 S8        30.07F
WILLIAMSBURG*  FAIR      90  68  48 S9        30.09F
HR EXEC AP*    FAIR      88  64  45 S12       30.11F
FRANKLIN*      FAIR      84  63  49 S7        30.10S
US460-WAKEFLD  FAIR      85  64  49 S8        30.09S
$$

VAZ020-022-025-037-045-272100-
WEST CENTRAL AND SOUTHWEST VIRGINIA

CITY           SKY/WX    TMP DP  RH WIND       PRES   REMARKS
STAUNTON*      FAIR      85  65  51 S10       30.09F
WAYNESBORO*    FAIR      84  65  51 S9        30.10F
HOT SPRINGS VA FAIR      76  59  56 S10       30.21F
LYNCHBURG      FAIR      84  66  54 S10       30.10F
DANVILLE       FAIR      85  65  51 SW9       30.09F
SOUTH BOSTON*  FAIR      84  66  53 S9        30.09S
MARTINSVILLE   FAIR      83  64  54 S3        30.12S
ROANOKE        PTSUNNY   82  64  54 S9        30.11F
BLACKSBURG     CLOUDY    76  64  66 SE8       30.18F
DUBLIN*        FAIR      81  62  52 SE12      30.16S
MARION*        FAIR      79  65  61 CALM      30.18F
HILLSVILLE*    PTSUNNY   79  65  62 SE8       30.16F
RICHLANDS*     CLOUDY    76  69  77 SE5       30.16S
WISE*          FAIR      81  50  34 S3        30.15F
ABINGDON*      CLOUDY    78  60  54 SE9       30.12S
$$

MDZ021>025-VAZ099-100-272100-
SOUTHERN MARYLAND AND THE DELMARVA PENINSULA

CITY           SKY/WX    TMP DP  RH WIND       PRES   REMARKS
PATUXENT RIVER MOSUNNY   81  67  62 SE10      30.06F
BAY BRIDGE APT SUNNY     86  68  54 S13G20    30.06S
LEONARDTOWN    MOSUNNY   86  66  51 SE7       30.08F
DOVER          SUNNY     90  71  53 S15       30.04S HX  95
GEORGETOWN     SUNNY     88  65  46 SW14      30.08R
EASTON         SUNNY     86  73  66 S12G18    30.11S
CAMBRIDGE      SUNNY     82  66  57 S12       30.08S
SALISBURY      SUNNY     86  65  49 SW14      30.08S
OCEAN CITY     SUNNY     73  62  68 S10G24    30.11S
WALLOPS ISLAND FAIR      75  62  64 S22G28    30.13R
ACCOMACK*      FAIR      79  59  50 S17G23    30.12S
$$

NCZ012>017-030>032-272100-
NORTH CENTRAL AND EASTERN NORTH CAROLINA

CITY           SKY/WX    TMP DP  RH WIND       PRES   REMARKS
ROANOKE RAPIDS FAIR      86  64  48 SE6       30.10S
RALEIGH        PTSUNNY   86  64  47 S7        30.10F
ELIZABETH CITY SUNNY     81  59  47 SE17      30.13S
AHOSKIE*       MOSUNNY   83  64  52 SE8       30.10F
EDENTON*       SUNNY     85  64  47 S8        30.13S
CURRITUCK*     SUNNY     84  58  40 S6        30.14S
KILL DEVIL HLS SUNNY     84  57  38 SE9G16    30.14S
MANTEO         NOT AVBL
CAPE HATTERAS  SUNNY     83  66  56 SE9       30.15F
TARBORO*       FAIR      87  64  47 SE8       30.11F
GOLDSBORO      PTSUNNY   87  59  39 E10       30.09F
WASHINGTON     SUNNY     84  61  46 SE10      30.12F
GREENVILLE     PTSUNNY   86  61  42 E9        30.12F
NEW BERN       SUNNY     83  55  38 E10       30.13F
WILMINGTON     SUNNY     79  60  52 SE10      30.13F
$$

VAZ048-272100-
ELSEWHERE

CITY           SKY/WX    TMP DP  RH WIND       PRES   REMARKS
HARRISBURG PA  CLOUDY    89  66  46 S8        30.01F
BALTIMORE      PTSUNNY   88  69  53 SE10      30.03F
ANNAPOLIS      SUNNY     81  70  69 S15       30.05S
ANDREWS AFB    FAIR      88  68  50 S13       30.05S
PHILADELPHIA   MOSUNNY   89  64  43 SW13      30.04R
HENDERSON NC   MOSUNNY   82  64  53 S10       30.11S
GREENSBORO     MOSUNNY   84  62  47 S10       30.10F
ROCKY MOUNT    MOSUNNY   87  63  44 VRB5      30.10F
$$

VAZ100-272100-
MARINE

STATION/POSITION TIME  TEMP    WIND        PRES    WAVE   SWELL
                       AIR SEA DIR/SP/G            HT/PER HT/PER
                 (UTC) (F)     (DEG/KT/KT) (MB)    (FT/S) (FT/S)
BRANDYWINE LGT   1900   67     170/ 19/ 21 1018.2F
CAPE MAY NJ      1900   71 67  160/ 13/ 19 1018.3S
LEWES DE         1900   83 63  160/  8/ 13 1018.2S
15NM E FENWICK I 1950   66 61              1019.4F   3/ 4
OCEAN-CITY-INLET 1900   63 59  210/ 12/ 15 1020.1F
WACHAPREAGUE VA  1900   75 76  180/ 15/ 18 1019.5F
THOMAS POINT MD  2000   73 67  180/ 11/ 12 1019.0F
GOOSES REEF MD   2000   72 68  160/ 12/ 14 1019.1F   1/ 3
COVE POINT MD    1900   70     190/ 12/ 13 1019.1F
SOLOMONS ISLAND  1900   75 67  120/ 12/ 14   N/A
BISHOPS HEAD MD  1900   79 79  180/ 19/ 20 1018.6F
PINEY POINT MD   1900          150/ 11/ 12   N/A
POTOMAC MD       2000   75 71  160/ 12/ 14 1017.4F   2/ 3
CAMBRIDGE MD     1900   83 65  140/  5/ 10 1017.7F
LEWISETTA VA     1900   84 71  200/ 11/ 12 1017.8F
RAPPAHANNOCK LGT 1900          180/ 14/ 14 1019.8F
STINGRAY PT      1900   72 70  160/ 14/ 16 1019.3F   1/ 2
YORK RVR RNG VA  1900   74     140/ 11/ 12 1018.5F
YORKTOWN VA      1900   84 67  220/ 11/ 15 1018.5F
JAMESTOWN VA     2000   83 74  190/  8/ 10   N/A     0
DOMINION TERM VA 1900   80     200/  6/  7 1019.2F
KIPTOPEKE VA     1900      70  170/ 19/ 22   N/A
CHES BAY BRIDGE  1900   81 65  160/ 10/ 13 1019.2F
CAPE HENRY VA    1900   77     140/ 19/ 23   N/A
CHESAPEAKE LGHT  1900   71     170/ 24/ 25 1020.2F
WILLOUBY STN VA  1900   84     200/ 11/ 14 1020.2F
CAPE HENRY BUOY  1912      68                N/A     2/ 3
1ST LANDING BUOY 2000   74 69  140/ 17/ 19 1019.2S   2/ 3
CAPE CHARLES BUO 1926      66                N/A     3/ 4   2/ 8
OFFSHORE WE BUOY 1921      65                N/A     2/ 8   2/ 8
64NM E OF VA BCH 1950   68 61  170/ 10/ 10 1020.7F   2/ 8   2/ 8
DUCK PIER NC     1900   72 63  130/ 17/ 18 1020.2F
44100 DUCK FRF   1924      69                N/A     2/ 8
44056 DUCK FRF   1911      65                N/A     2/ 7
OREGON INLET NC  1900   79 76  100/  7/ 11 1021.2F
HATTERAS NC      1900   77 73  110/  6/  8 1020.7F
DIAMOND SHLS NC  1950   76 78  130/ 12/ 16 1020.8F   2/ 8   2/ 8
CAPE C1F1C2F2C3F3C4F4C5F5C6F6C7F7C8M1C9!



USA.gov is the U.S. government's official web portal to all federal, state and local government web resources and services.